Regional Weather Roundup
Issued by NWS Sterling, VA

Home | Current Version | Previous Version | Graphics & Text | Print | Product List | Glossary On
Versions: 1 2 3 4 5 6 7 8 9 10 11 12 13 14 15 16 17 18 19 20 21 22 23 24 25 26 27 28 29 30 31 32 33 34 35 36 37 38 39 40 41 42 43 44 45 46 47 48 49 50
000
ASUS41 KLWX 200410
RWRLWX

REGIONAL WEATHER ROUNDUP
NATIONAL WEATHER SERVICE BALTIMORE MD/WASHINGTON DC
1200 AM EDT SAT SEP 20 2014

Note: "FAIR" indicates few or no clouds below 12,000 feet
with no significant weather and/or obstructions to visibility.
 TC=TEMPERATURE CELSIUS

 * =Non NWS site. Station does not report precipitation (e.g. rain,
    snow, etc.), thunder, or fog.

DCZ001-MDZ009-015-VAZ040>042-051-053>054-200500-
WASHINGTON METRO

CITY           SKY/WX    TMP DP  RH WIND       PRES   REMARKS
WASHINGTON NAT CLEAR     68  59  73 E8        30.30F
DULLES         MOCLDY    64  59  83 SE9       30.28F
ANDREWS AFB    CLEAR     63  60  89 NE5       30.30F
QUANTICO       PTCLDY    67  61  81 SE12      30.29F
COLLEGE PARK*  CLOUDY    64  61  88 E3        30.30S
LEESBURG*      CLOUDY    68  63  83 SE5       30.30S
MANASSAS*      PTCLDY    64  63  94 SE7       30.28F
GAITHERSBURG*  CLOUDY    63  57  82 E5        30.34S

$$

MDZ006>007-011-014-200500-
BALTIMORE METRO

CITY           SKY/WX    TMP DP  RH WIND       PRES   REMARKS
BWI AIRPORT    MOCLDY    62  58  86 E7        30.30F
MD SCIENCE CTR   N/A     64  58  80 MISG      30.31F
MARTIN STATE   CLEAR     63  61  94 E5        30.32F
ANNAPOLIS      MOCLDY    66  60  81 E9        30.30F
FORT MEADE*    PTCLDY    59  55  88 CALM      30.32F

$$

MDZ012-015-019>023-200500-
MARYLAND EASTERN SHORE

CITY           SKY/WX    TMP DP  RH WIND       PRES   REMARKS
OCEAN CITY     PTCLDY    70  60  70 E14G21    30.30S
SALISBURY      CLEAR     62  57  83 E3        30.29F
BAY BRIDGE AP*   N/A     63  59  88 E6        30.30F
CAMBRIDGE*     PTCLDY    61  57  88 E5        30.29F
EASTON*        CLEAR     61  61 100 CALM      30.34F

$$

MDZ017>025-200500-
SOUTHERN MARYLAND

CITY           SKY/WX    TMP DP  RH WIND       PRES   REMARKS
PATUXENT RIVER PTCLDY    66  61  84 E10       30.29F
ST INIGOES     PTCLDY    65  59  81 E5        30.28F
LEONARDTOWN*   MOCLDY    63  59  88 CALM      30.30F

$$

MDZ003>005-200500-
NORTH CENTRAL MARYLAND

CITY           SKY/WX    TMP DP  RH WIND       PRES   REMARKS
FREDERICK*     CLOUDY    66  61  82 SE6       30.31F
HAGERSTOWN APT CLOUDY    65  57  75 SE12      30.27S
WESTMINSTER*   MOCLDY    61  57  88 SE9       30.30F

$$

MDZ501>502-200500-
WESTERN MARYLAND

CITY           SKY/WX    TMP DP  RH WIND       PRES   REMARKS
OAKLAND*       MOCLDY    54 N/A N/A SE14      30.26R
CUMBERLAND*    MOCLDY    64  57  77 S3        30.28F

$$

VAZ025>031-200500-
SHENANDOAH VALLEY

CITY           SKY/WX    TMP DP  RH WIND       PRES   REMARKS
WINCHESTER*    CLOUDY    64  57  77 SE9       30.28R
STAUNTON*      CLOUDY    61  56  84 CALM      30.31S

$$

WVZ021-048>050-054>055-200500-
EASTERN WEST VIRGINIA PANHANDLE

CITY           SKY/WX    TMP DP  RH WIND       PRES   REMARKS
MARTINSBURG    CLOUDY    66  56  70 SE6       30.28R
PETERSBURG*    MOCLDY    61  57  87 S6        30.27S

$$

VAZ036>039-050-200500-
CENTRAL FOOTHILLS

CITY           SKY/WX    TMP DP  RH WIND       PRES   REMARKS
CHARLOTTESVILL CLOUDY    63  60  90 CALM      30.28S
ORANGE*        CLOUDY    64  55  72 CALM      30.29F

$$

VAZ055>057-200500-
NORTH AND CENTRAL PIEDMONT

CITY           SKY/WX    TMP DP  RH WIND       PRES   REMARKS
FREDERICKSBRG* PTCLDY    64  59  83 CALM      30.27F
STAFFORD*      CLEAR     61  61 100 CALM      30.33S

$$

NCZ024-NYZ072-PAZ021-071-VAZ022-071-200500-
OTHER REGIONAL OBSERVATIONS

CITY           SKY/WX    TMP DP  RH WIND       PRES   REMARKS
NEW YORK CITY  CLEAR     60  46  59 VRB3      30.38F
PHILADELPHIA   PTCLDY    59  54  83 E7        30.34F
PITTSBURGH     CLEAR     61  55  81 S7        30.15S
ROANOKE        CLOUDY    61  58  90 W3        30.30S
RICHMOND       PTCLDY    64  59  83 E5        30.28S
RALEIGH        CLEAR     66  57  72 E8        30.25R

$$

ANZ530>537-200500-
MARINE OBSERVATIONS

STATION/POSITION TIME  TEMP    WIND        PRES
                       AIR SEA DIR/SP/G
                 (UTC) (F)     (DEG/KT/KT) (MB)
THOMAS PT LIGHT  0400   66 73  110/ 14/ 17 1026.7F
BALT KEY BRIDGE  0400   64      90/  9/ 10 1026.0F
COVE POINT       0400   66     120/  9/ 11 1025.8R
LEWISETTA        0400   70 74  140/  6/  7 1025.1R
SOLOMONS ISLAND  0400      76                N/A
PINEY POINT      0400          100/  7/  8   N/A

$$




USA.gov is the U.S. government's official web portal to all federal, state and local government web resources and services.